This demonstration page uses our WeatherBlox Daily Observations layout. Learn more.

Left ArrowRight Arrow

36.19886, -115.1175

Hourly Observations for August 11, 2016

Temp ( °F °C ) Dew Point ( °F °C ) Humidity (%) Winds ( mph kmh ) Pressure ( in mb ) Visibility ( mi km ) Precip ( " mm )
12:53 am 00:53 Clear 86 30 16 -8.9 7 7 WSW 7 11 29.83 1010 10 16.0934 0 0
1:53 am 01:53 Clear 86 30 17 -8.3 8 8 SSW 9 15 29.83 1010 10 16.0934 0 0
2:53 am 02:53 Clear 84 28.9 20 -6.7 9 9 SW 8 13 29.85 1011 10 16.0934 0 0
3:53 am 03:53 Clear 81 27.2 24 -4.4 12 12 S 7 11 29.87 1012 10 16.0934 0 0
4:53 am 04:53 Clear 80 26.7 26 -3.3 14 14 SSE 7 11 29.88 1012 10 16.0934 0 0
5:53 am 05:53 Clear 75 23.9 30 -1.1 19 19 N 7 11 29.93 1013 10 16.0934 0 0
6:53 am 06:53 Sunny 77 25 28 -2.2 16 16 NNW 5 7 29.95 1014 10 16.0934 0 0
7:53 am 07:53 Sunny 80 26.7 32 0 17 17 NNW 3 6 29.97 1015 10 16.0934 0 0
8:53 am 08:53 Sunny 86 30 31 -0.6 14 14 Calm 29.98 1015 10 16.0934 0 0
9:53 am 09:53 Sunny 91 32.8 36 2.2 14 14 SSE 5 7 29.97 1015 10 16.0934 0 0
10:53 am 10:53 Sunny 94 34.4 46 7.8 19 19 SSE 13 20 29.96 1015 10 16.0934 0 0
11:53 am 11:53 Sunny 95 35 45 7.2 18 18 S 10 17 29.96 1014 10 16.0934 0 0
12:53 pm 12:53 Sunny 98 36.7 42 5.6 15 15 SE 8 13 29.93 1014 10 16.0934 0 0
1:53 pm 13:53 Sunny 100 37.8 34 1.1 10 10 WSW 14 22 29.92 1013 10 16.0934 0 0
2:53 pm 14:53 Sunny 101 38.3 33 0.6 9 9 S 18 30 29.9 1012 10 16.0934 0 0
3:53 pm 15:53 Sunny 100 37.8 34 1.1 10 10 SSW 9 15 29.88 1012 10 16.0934 0 0
4:53 pm 16:53 Sunny 100 37.8 34 1.1 10 10 WSW 10 17 29.86 1011 10 16.0934 0 0
5:53 pm 17:53 Sunny 100 37.8 32 0 9 9 S 12 19 29.86 1011 10 16.0934 0 0
6:53 pm 18:53 Sunny 99 37.2 31 -0.6 9 9 WSW 5 7 29.86 1011 10 16.0934 0 0
7:53 pm 19:53 Clear 96 35.6 30 -1.1 10 10 WSW 8 13 29.87 1012 10 16.0934 0 0
8:53 pm 20:53 Clear 95 35 28 -2.2 9 9 WSW 9 15 29.88 1012 10 16.0934 0 0
9:53 pm 21:53 Clear 92 33.3 27 -2.8 10 10 NW 8 13 29.9 1012 10 16.0934 0 0
10:53 pm 22:53 Clear 90 32.2 24 -4.4 9 9 NW 7 11 29.9 1013 10 16.0934 0 0
11:53 pm 23:53 Clear 88 31.1 24 -4.4 10 10 Calm 29.92 1013 10 16.0934 0 0

Powered by AerisWeather